Location: Saint-Palais-sur-Mer
(45.6429°N, 1.0859°W)
Time: 00:20:40
(UTC+02:00)

ISS - Pass Details

Date: 04 June 2020
Orbit: 419 x 420 km, 51.6° (Epoch: 19 September)

Event Time Altitude Azimuth Distance (km) Brightness Sun altitude
Rises 22:20:59 0° 287° (WNW) 2,377 1.5 -5.3°
Reaches altitude 10° 22:23:38 10° 265° (W) 1,509 -0.2 -5.6°
Maximum altitude 22:25:48 16° 226° (SW) 1,192 -1.4 -5.9°
Drops below altitude 10° 22:27:58 10° 186° (S) 1,505 -1.3 -6.2°
Enters shadow 22:29:42 - 169° (S) 2,045 -0.7 -6.4°
